Powrót do katalogu

SL-8 DEB

AktywnyPO
NORAD 25057·DEBRIS·🇷🇺 Russia

Wystrzelony Apr 20, 1990 z Plesetsk Cosmodrome

Loading…

Następne Przeloty (najbliższe 24 godziny)

TLE

ŚwieżeSource: Space-Track

Epoka: Sep 14, 2026, 14:17 UTC

1 25057U 90036C   26257.59527867  .00000269  00000-0  22601-3 0  9999
2 25057  82.9380 299.3544 0018270 284.7843 228.6631 13.84431651723636

Śledź SL-8 DEB w czasie rzeczywistym z AllMySat

Download on the App Store